Powrót do katalogu

USA 457

AktywnyMilitariaVLEO
NORAD 62356·PAYLOAD·🇺🇸 United States

Wystrzelony Dec 17, 2024 z Vandenberg Space Force Base

Loading…

Następne Przeloty (najbliższe 24 godziny)

TLE

NieaktualneSource: Mike McCants

Epoka: Aug 23, 2026, 19:57 UTC

1 62356U 24243S   26235.83157991 0.00000000  00000-0  00000-0 0    01
2 62356  70.0230 127.0813 0004000 111.4058 248.5942 14.96713534    09

Śledź USA 457 w czasie rzeczywistym z AllMySat

Download on the App Store